Regional Weather Roundup
Issued by NWS

Home | Current Version | Previous Version | Text Only | Print | Product List | Glossary On
Versions: 1 2 3 4 5 6 7 8 9 10 11 12 13 14 15 16 17 18 19 20 21 22 23 24 25 26 27 28 29 30 31 32 33 34 35 36 37 38 39 40 41 42 43 44 45 46 47 48 49 50
000
ASUS43 KLSX 300010
RWRMO

WEATHER SUMMARY FOR MISSOURI
NATIONAL WEATHER SERVICE SPRINGFIELD MO
700 PM CDT WED MAR 29 2017

NOTE: "FAIR" INDICATES FEW OR NO CLOUDS BELOW 12,000 FEET WITH NO
       SIGNIFICANT WEATHER AND/OR OBSTRUCTIONS TO VISIBILITY.
       CURRENT SKY AND/OR WEATHER CONDITIONS ARE NOT AVAILABLE FOR
       CHILLICOTHE AND FARMINGTON.

MOZ001>031-035>038-043-044-053-054-300100-
...NORTHERN AND WESTERN MISSOURI...

CITY           SKY/WX    TMP DP  RH WIND       PRES   REMARKS
KANSAS CTY INT MOCLDY    54  53  97 NE10      29.66F
6HR MIN TEMP:  50; 6HR MAX TEMP:  56; 6HR PCP:  0.14;

KANSAS C DTWN  MOCLDY    60  55  83 NE9       29.66F
6HR MIN TEMP:  55; 6HR MAX TEMP:  60; 6HR PCP:  0.47;

LEE`S SUMMIT   TSTM      58  55  90 NE13      29.66F
6HR MIN TEMP:  54; 6HR MAX TEMP:  62; 6HR PCP:  0.04;

ST JOSEPH      LGT RAIN  52  52 100 NE9       29.67F
6HR MIN TEMP:  49; 6HR MAX TEMP:  53; 6HR PCP:  0.23;

CHILLICOTHE      N/A     55  52  89 E10G21    29.74F
6HR MIN TEMP:  50; 6HR MAX TEMP:  55;

KIRKSVILLE     CLOUDY    50  49  96 E15       29.80F
6HR MIN TEMP:  48; 6HR MAX TEMP:  52; 6HR PCP:  0.10;


$$
MOZ066>068-077>081-088>096-101>105-300100-
...SOUTHWEST MISSOURI...

CITY           SKY/WX    TMP DP  RH WIND       PRES   REMARKS
SPRINGFIELD    PTCLDY    69  58  67 S15       29.68R
6HR MIN TEMP:  68; 6HR MAX TEMP:  73;

JOPLIN         MOCLDY    71  54  54 SW13G22   29.64R
6HR MIN TEMP:  69; 6HR MAX TEMP:  77;

BRANSON        MOCLDY    70  57  64 S7G18     29.71S

$$
MOZ032>034-039>042-045>050-055>058-069>072-300100-
...CENTRAL MISSOURI...

CITY           SKY/WX    TMP DP  RH WIND       PRES   REMARKS
COLUMBIA       MOCLDY    62  57  83 E15       29.73F
6HR MIN TEMP:  51; 6HR MAX TEMP:  62; 6HR PCP:  0.01;

JEFFERSON CITY CLOUDY    66  58  75 E6        29.71F
6HR MIN TEMP:  57; 6HR MAX TEMP:  68; 6HR PCP:  0.07;

ROLLA          LGT RAIN  66  59  78 E8        29.73S
6HR MIN TEMP:  62; 6HR MAX TEMP:  71; 6HR PCP: TRACE;

SEDALIA        CLOUDY    60  57  89 E10       29.69F
6HR MIN TEMP:  54; 6HR MAX TEMP:  64; 6HR PCP:  0.26;

WHITEMAN AFB   MOCLDY    62  62 100 E9        29.65S
WARRENSBURG    MOCLDY    63  55  77 E12       29.65S
OSAGE BEACH    CLOUDY    67  62  84 SE7       29.71F

$$
MOZ051-052-059>065-300100-
...EAST CENTRAL MISSOURI...

CITY           SKY/WX    TMP DP  RH WIND       PRES   REMARKS
ST LOUIS INTL  CLOUDY    66  54  65 E16       29.82F
6HR MIN TEMP:  57; 6HR MAX TEMP:  67; 6HR PCP: TRACE;

SPIRIT OF STL  CLOUDY    66  57  72 E8        29.79F
6HR MIN TEMP:  56; 6HR MAX TEMP:  66;

ST CHARLES     CLOUDY    61  56  83 E12       29.81F
6HR MIN TEMP:  54; 6HR MAX TEMP:  63;


$$
MOZ072>076-082>087-097>100-106>115-300100-
...SOUTH CENTRAL AND SOUTHEAST MISSOURI...

CITY           SKY/WX    TMP DP  RH WIND       PRES   REMARKS
CAPE GIRARDEAU MOCLDY    69  60  73 E9        29.81F
6HR MIN TEMP:  66; 6HR MAX TEMP:  74;

FARMINGTON     CLOUDY    68  60  75 SE10      29.81F
6HR MIN TEMP:  62; 6HR MAX TEMP:  70;

POPLAR BLUFF   MOCLDY    74  62  66 SE8       29.78F
6HR MIN TEMP:  68; 6HR MAX TEMP:  76;

WEST PLAINS    TSTM      71  61  70 SE13G21   29.73F
6HR MIN TEMP:  66; 6HR MAX TEMP:  73; 6HR PCP: TRACE;


$$




USA.gov is the U.S. government's official web portal to all federal, state and local government web resources and services.